Camp Pendleton, CA

11:31 PM PDT on October 17, 2017 (GMT -0700)
Camp Pendleton Marine Corps Air Station

Weather History for KNFG - November, 2011

Change the Weather History Date:

Tuesday, November 8, 2011

  Actual Average Record
Temperature  
Mean Temperature 53 °F -  
Max Temperature 69 °F 69 °F 94 °F (1996)
Min Temperature 37 °F 43 °F 33 °F (2000)
Degree Days  
Heating Degree Days 12    
Growing Degree Days 3 (Base 50)    
Moisture  
Dew Point 35 °F    
Average Humidity 59    
Maximum Humidity 89    
Minimum Humidity 22    
Precipitation  
Precipitation 0.00 in - - ()
Sea Level Pressure  
Sea Level Pressure 30.21 in    
Wind  
Wind Speed 2 mph (NNW)    
Max Wind Speed 9 mph    
Max Gust Speed -    
Visibility 10 miles    
Events      
Averages and records for this station are not official NWS values.
T = Trace of Precipitation, MM = Missing Value Source: NWS Daily Summary

Daily Weather History Graph

Daily Weather History Graph

Search for Another Location

Airport or City:

Trip Planner

Search our weather history database for the weather conditions in past years. The results will help you decide how hot, cold, wet, or windy it might be!

Date:

Astronomy

Nov. 08, 2011 Rise Set
Actual Time 6:13 AM PST 4:51 PM PST
Civil Twilight 5:47 AM PST 5:17 PM PST
Nautical Twilight 5:18 AM PST 5:47 PM PST
Astronomical Twilight 4:49 AM PST 6:16 PM PST
Moon 3:32 PM PST (11/8) 4:20 AM PST (11/8)
Length of Visible Light 11h 29m
Length of Day
10h 37m
Waxing Gibbous, 96% of the Moon is Illuminated
Nov 8
Waxing Gibbous
Nov 10
Full
Nov 18
Last Quarter
Nov 24
New
Dec 2
First Quarter

Hourly Weather History & Observations

Time (PST) Temp. Windchill Dew Point Humidity Pressure Visibility Wind Dir Wind Speed Gust Speed Precip Events Conditions
12:54 AM 41.0 °F - 37.0 °F 86% 30.21 in 10.0 mi Calm Calm - N/A   Clear
1:54 AM 39.9 °F - 36.0 °F 86% 30.21 in 9.0 mi Calm Calm - N/A   Clear
2:54 AM 39.9 °F - 36.0 °F 86% 30.21 in 9.0 mi Calm Calm - N/A   Clear
3:54 AM 39.0 °F - 36.0 °F 89% 30.21 in 10.0 mi Calm Calm - N/A   Clear
4:54 AM 39.9 °F - 34.0 °F 79% 30.21 in 9.0 mi Calm Calm - N/A   Clear
5:54 AM 37.0 °F - 33.1 °F 86% 30.22 in 8.0 mi Calm Calm - N/A   Clear
6:54 AM 39.9 °F - 36.0 °F 86% 30.24 in 8.0 mi Calm Calm - N/A   Partly Cloudy
7:54 AM 48.9 °F - 44.1 °F 83% 30.25 in 9.0 mi Calm Calm - N/A   Partly Cloudy
8:54 AM 57.9 °F - 44.1 °F 60% 30.25 in 10.0 mi Calm Calm - N/A   Partly Cloudy
9:54 AM 66.0 °F - 39.0 °F 37% 30.25 in 10.0 mi ENE 3.5 mph - N/A   Scattered Clouds
10:54 AM 69.1 °F - 28.9 °F 22% 30.23 in 10.0 mi Calm Calm - N/A   Scattered Clouds
11:54 AM 69.1 °F - 36.0 °F 30% 30.20 in 10.0 mi SW 5.8 mph - N/A   Scattered Clouds
12:54 PM 69.1 °F - 35.1 °F 29% 30.18 in 10.0 mi WSW 6.9 mph - N/A   Scattered Clouds
1:54 PM 68.0 °F - 35.1 °F 30% 30.17 in 10.0 mi West 9.2 mph - N/A   Mostly Cloudy
2:55 PM 68.0 °F - 30.9 °F 25% 30.16 in 10.0 mi West 5.8 mph - N/A   Mostly Cloudy
3:55 PM 66.9 °F - 30.9 °F 26% 30.16 in 10.0 mi Variable 6.9 mph - N/A   Mostly Cloudy
4:54 PM 63.0 °F - 32.0 °F 31% 30.16 in 10.0 mi Variable 4.6 mph - N/A   Partly Cloudy
5:54 PM 57.9 °F - 33.1 °F 39% 30.18 in 10.0 mi Calm Calm - N/A   Partly Cloudy
6:54 PM 53.1 °F - 36.0 °F 52% 30.20 in 10.0 mi ENE 5.8 mph - N/A   Clear
7:54 PM 50.0 °F - 35.6 °F 58% 30.21 in 10.0 mi ENE 6.9 mph - N/A   Clear
8:55 PM 46.0 °F 44.8 °F 37.0 °F 71% 30.23 in 10.0 mi NE 3.5 mph - N/A   Clear
9:54 PM 43.0 °F - 36.0 °F 76% 30.23 in 10.0 mi Calm Calm - N/A   Clear
10:55 PM 39.9 °F - 34.0 °F 79% 30.24 in 10.0 mi Calm Calm - N/A   Clear
11:55 PM 39.0 °F - 33.1 °F 79% 30.22 in 10.0 mi Calm Calm - N/A   Clear